Hourly Weather Rudka-Myryns'ka

Today, 21 April, Wednesday

Time Temperature Precipitation Wind Pressure Humidity
00:00 +6°C° 0 mm 1 mps 743 mmHg 86%
01:00 +6°C° 0 mm 1 mps 743 mmHg 87%
02:00 +5°C° 0 mm 2 mps 743 mmHg 88%
03:00 +5°C° 0 mm 2 mps 743 mmHg 88%
04:00 +5°C° 0 mm 2 mps 743 mmHg 88%
05:00 +5°C° 0 mm 2 mps 743 mmHg 89%
06:00 +6°C° 0 mm 2 mps 743 mmHg 84%
07:00 +7°C° 0 mm 3 mps 743 mmHg 80%
08:00 +9°C° 0 mm 3 mps 743 mmHg 75%
09:00 +10°C° 0.2 mm 3 mps 743 mmHg 69%
10:00 +12°C° 0.2 mm 4 mps 743 mmHg 62%
11:00 +13°C° 0.2 mm 4 mps 743 mmHg 55%
12:00 +14°C° 0.2 mm 4 mps 743 mmHg 52%
13:00 +14°C° 0.2 mm 4 mps 742 mmHg 49%
14:00 +15°C° 0.2 mm 5 mps 742 mmHg 46%
15:00 +15°C° 0.2 mm 4 mps 742 mmHg 51%
16:00 +14°C° 0.2 mm 4 mps 742 mmHg 55%
17:00 +14°C° 0.2 mm 4 mps 742 mmHg 60%
18:00 +12°C° 0.2 mm 4 mps 742 mmHg 67%
19:00 +11°C° 0.2 mm 3 mps 742 mmHg 74%
20:00 +9°C° 0.2 mm 3 mps 742 mmHg 82%
21:00 +9°C° 0.1 mm 3 mps 742 mmHg 84%
22:00 +8°C° 0.1 mm 3 mps 743 mmHg 87%
23:00 +7°C° 0.1 mm 4 mps 743 mmHg 89%

Tomorrow, 22 April, Thursday

Time Temperature Precipitation Wind Pressure Humidity
00:00 +6°C° 0 mm 4 mps 743 mmHg 91%
01:00 +6°C° 0 mm 4 mps 743 mmHg 92%
02:00 +6°C° 0 mm 4 mps 743 mmHg 93%
03:00 +5°C° 0 mm 3 mps 743 mmHg 93%
04:00 +5°C° 0 mm 3 mps 743 mmHg 93%
05:00 +5°C° 0 mm 3 mps 743 mmHg 93%
06:00 +6°C° 0 mm 4 mps 743 mmHg 88%
07:00 +7°C° 0 mm 4 mps 743 mmHg 82%
08:00 +9°C° 0 mm 5 mps 743 mmHg 77%
09:00 +9°C° 0.3 mm 5 mps 744 mmHg 76%
10:00 +10°C° 0.3 mm 5 mps 744 mmHg 76%
11:00 +11°C° 0.3 mm 4 mps 744 mmHg 76%
12:00 +10°C° 0.6 mm 5 mps 744 mmHg 75%
13:00 +10°C° 0.6 mm 5 mps 744 mmHg 75%
14:00 +10°C° 0.6 mm 5 mps 744 mmHg 75%
15:00 +9°C° 0.1 mm 5 mps 744 mmHg 76%
16:00 +7°C° 0.1 mm 5 mps 745 mmHg 77%
17:00 +6°C° 0.1 mm 5 mps 745 mmHg 78%
18:00 +6°C° 0.1 mm 4 mps 745 mmHg 80%
19:00 +5°C° 0.1 mm 3 mps 745 mmHg 81%
20:00 +4°C° 0.1 mm 3 mps 746 mmHg 83%
21:00 +4°C° 0 mm 3 mps 746 mmHg 83%
22:00 +3°C° 0 mm 3 mps 746 mmHg 84%
23:00 +2°C° 0 mm 3 mps 746 mmHg 85%

Day after tomorrow, 23 April, Friday

Time Temperature Precipitation Wind Pressure Humidity
00:00 +2°C° 0 mm 3 mps 746 mmHg 85%
01:00 +1°C° 0 mm 3 mps 746 mmHg 84%
02:00 +1°C° 0 mm 3 mps 746 mmHg 84%
03:00 +1°C° 0 mm 3 mps 746 mmHg 86%
04:00 0°C° 0 mm 3 mps 746 mmHg 87%
05:00 0°C° 0 mm 3 mps 746 mmHg 89%
06:00 0°C° 0 mm 4 mps 746 mmHg 82%
07:00 +1°C° 0 mm 4 mps 747 mmHg 75%
08:00 +3°C° 0 mm 5 mps 747 mmHg 68%
09:00 +3°C° 0 mm 5 mps 747 mmHg 66%
10:00 +3°C° 0 mm 5 mps 747 mmHg 63%
11:00 +3°C° 0 mm 6 mps 747 mmHg 60%
12:00 +5°C° 0.1 mm 5 mps 747 mmHg 56%
13:00 +6°C° 0.1 mm 5 mps 747 mmHg 53%
14:00 +7°C° 0.1 mm 5 mps 747 mmHg 49%
15:00 +7°C° 0.1 mm 5 mps 747 mmHg 49%
16:00 +7°C° 0.1 mm 5 mps 746 mmHg 49%
17:00 +7°C° 0.1 mm 5 mps 746 mmHg 49%
18:00 +6°C° 0 mm 4 mps 746 mmHg 57%
19:00 +4°C° 0 mm 4 mps 746 mmHg 66%
20:00 +3°C° 0 mm 4 mps 746 mmHg 75%
21:00 +1°C° 0.2 mm 4 mps 746 mmHg 81%
22:00 +1°C° 0.2 mm 4 mps 746 mmHg 87%
23:00 +1°C° 0.2 mm 4 mps 746 mmHg 93%

24 April, Saturday

Time Temperature Precipitation Wind Pressure Humidity
00:00 0°C° 0.4 mm 5 mps 746 mmHg 91%
01:00 -1°C° 0.4 mm 6 mps 747 mmHg 89%
02:00 -1°C° 0.4 mm 6 mps 747 mmHg 87%
03:00 -2°C° 0 mm 6 mps 747 mmHg 89%
04:00 -2°C° 0 mm 5 mps 747 mmHg 91%
05:00 -3°C° 0 mm 4 mps 748 mmHg 93%
06:00 -2°C° 0 mm 5 mps 748 mmHg 85%
07:00 -1°C° 0 mm 5 mps 748 mmHg 77%
08:00 +1°C° 0 mm 5 mps 748 mmHg 68%
09:00 +1°C° 0.1 mm 6 mps 748 mmHg 68%
10:00 +2°C° 0.1 mm 6 mps 748 mmHg 67%
11:00 +3°C° 0.1 mm 6 mps 748 mmHg 66%
12:00 +4°C° 0.3 mm 6 mps 748 mmHg 61%
13:00 +5°C° 0.3 mm 6 mps 748 mmHg 55%
14:00 +5°C° 0.3 mm 6 mps 748 mmHg 50%
15:00 +5°C° 0.3 mm 6 mps 748 mmHg 54%
16:00 +5°C° 0.3 mm 6 mps 748 mmHg 59%
17:00 +4°C° 0.3 mm 6 mps 748 mmHg 63%
18:00 +3°C° 0.1 mm 5 mps 748 mmHg 68%
19:00 +3°C° 0.1 mm 4 mps 748 mmHg 74%
20:00 +2°C° 0.1 mm 3 mps 748 mmHg 79%
21:00 +1°C° 0 mm 3 mps 748 mmHg 81%
22:00 +1°C° 0 mm 3 mps 749 mmHg 82%
23:00 0°C° 0 mm 3 mps 749 mmHg 84%

25 April, Sunday

Time Temperature Precipitation Wind Pressure Humidity
00:00 0°C° 0 mm 3 mps 749 mmHg 85%
01:00 -1°C° 0 mm 3 mps 749 mmHg 87%
02:00 -1°C° 0 mm 3 mps 749 mmHg 88%
03:00 -1°C° 0 mm 3 mps 749 mmHg 90%
04:00 -3°C° 0 mm 4 mps 749 mmHg 91%
05:00 -3°C° 0 mm 4 mps 749 mmHg 92%
06:00 -2°C° 0 mm 4 mps 749 mmHg 86%
07:00 -1°C° 0 mm 5 mps 749 mmHg 79%
08:00 -1°C° 0 mm 6 mps 749 mmHg 72%
09:00 +1°C° 0 mm 6 mps 749 mmHg 68%
10:00 +1°C° 0 mm 6 mps 749 mmHg 65%
11:00 +2°C° 0 mm 6 mps 749 mmHg 61%
12:00 +3°C° 0.1 mm 6 mps 749 mmHg 56%
13:00 +4°C° 0.1 mm 6 mps 749 mmHg 52%
14:00 +5°C° 0.1 mm 6 mps 749 mmHg 47%
15:00 +5°C° 0.3 mm 6 mps 748 mmHg 50%
16:00 +4°C° 0.3 mm 6 mps 748 mmHg 53%
17:00 +5°C° 0.3 mm 5 mps 748 mmHg 56%
18:00 +4°C° 0.2 mm 4 mps 748 mmHg 65%
19:00 +3°C° 0.2 mm 4 mps 748 mmHg 73%
20:00 +1°C° 0.2 mm 3 mps 748 mmHg 82%
21:00 +1°C° 0 mm 3 mps 748 mmHg 84%
22:00 +1°C° 0 mm 3 mps 748 mmHg 86%
23:00 0°C° 0 mm 3 mps 748 mmHg 88%

26 April, Monday

Time Temperature Precipitation Wind Pressure Humidity
00:00 0°C° 0 mm 3 mps 748 mmHg 88%
01:00 -1°C° 0 mm 3 mps 748 mmHg 89%
02:00 -2°C° 0 mm 4 mps 748 mmHg 89%
03:00 -3°C° 0 mm 4 mps 748 mmHg 88%
04:00 -3°C° 0 mm 4 mps 748 mmHg 87%
05:00 -3°C° 0 mm 4 mps 748 mmHg 86%
06:00 -2°C° 0 mm 5 mps 748 mmHg 79%
07:00 -2°C° 0 mm 6 mps 749 mmHg 72%
08:00 -1°C° 0 mm 6 mps 749 mmHg 65%
09:00 +2°C° 0 mm 7 mps 749 mmHg 57%
10:00 +3°C° 0 mm 7 mps 749 mmHg 50%
11:00 +5°C° 0 mm 7 mps 749 mmHg 42%
12:00 +6°C° 0 mm 7 mps 748 mmHg 42%
13:00 +6°C° 0 mm 7 mps 748 mmHg 41%
14:00 +8°C° 0 mm 7 mps 748 mmHg 41%
15:00 +8°C° 0 mm 6 mps 748 mmHg 42%
16:00 +8°C° 0 mm 5 mps 748 mmHg 44%
17:00 +9°C° 0 mm 5 mps 748 mmHg 45%
18:00 +7°C° 0 mm 4 mps 748 mmHg 52%
19:00 +5°C° 0 mm 3 mps 748 mmHg 58%
20:00 +3°C° 0 mm 3 mps 748 mmHg 65%
21:00 +3°C° 0 mm 3 mps 748 mmHg 68%
22:00 +2°C° 0 mm 3 mps 748 mmHg 70%
23:00 +2°C° 0 mm 3 mps 748 mmHg 73%
Show more